| time (UTC) | temp F | wind direction | speed MPH | gust MPH | rain 1hr in | rain 24hr in | rain mn in | humidity % | barometer mb |
| 20260901063909 | 58 | 57 | 4.0 | 4.0 | 0.00 | 0.00 | 0.00 | 52 | 1017.1 |
| 20260901063406 | 59 | 62 | 3.0 | 4.0 | 0.00 | 0.00 | 0.00 | 51 | 1017.0 |
| 20260901062902 | 59 | 66 | 3.0 | 4.0 | 0.00 | 0.00 | 0.00 | 50 | 1017.3 |
| 20260901061853 | 58 | 29 | 2.0 | 3.0 | 0.00 | 0.00 | 0.00 | 51 | 1017.3 |
| 20260901061348 | 59 | 309 | 1.0 | 4.0 | 0.00 | 0.00 | 0.00 | 49 | 1017.0 |
| 20260901060843 | 59 | 51 | 2.0 | 3.0 | 0.00 | 0.00 | 0.00 | 48 | 1017.3 |
| 20260901060339 | 59 | 61 | 3.0 | 4.0 | 0.00 | 0.00 | 0.00 | 48 | 1017.4 |
| 20260901055838 | 60 | 73 | 3.0 | 3.0 | 0.00 | 0.00 | 0.00 | 48 | 1017.4 |
| 20260901055335 | 60 | 62 | 3.0 | 6.0 | 0.00 | 0.00 | 0.00 | 48 | 1017.5 |
| 20260901054831 | 60 | 54 | 4.0 | 4.0 | 0.00 | 0.00 | 0.00 | 47 | 1017.4 |
| 20260901054328 | 60 | 65 | 3.0 | 4.0 | 0.00 | 0.00 | 0.00 | 47 | 1017.4 |
| 20260901053824 | 61 | 64 | 3.0 | 3.0 | 0.00 | 0.00 | 0.00 | 46 | 1017.6 |
| 20260901053319 | 61 | 54 | 3.0 | 3.0 | 0.00 | 0.00 | 0.00 | 46 | 1017.5 |
| 20260901052814 | 61 | 56 | 2.0 | 4.0 | 0.00 | 0.00 | 0.00 | 46 | 1017.1 |
| 20260901052310 | 61 | 63 | 4.0 | 6.0 | 0.00 | 0.00 | 0.00 | 46 | 1017.5 |
| 20260901051808 | 62 | 66 | 3.0 | 3.0 | 0.00 | 0.00 | 0.00 | 45 | 1017.5 |
| 20260901051304 | 62 | 56 | 3.0 | 3.0 | 0.00 | 0.00 | 0.00 | 45 | 1017.5 |
| 20260901050759 | 62 | 64 | 2.0 | 3.0 | 0.00 | 0.00 | 0.00 | 45 | 1017.6 |
| 20260901050254 | 62 | 72 | 3.0 | 3.0 | 0.00 | 0.00 | 0.00 | 45 | 1017.5 |
| 20260901045750 | 62 | 58 | 2.0 | 3.0 | 0.00 | 0.00 | 0.00 | 45 | 1017.5 |
| 20260901045244 | 62 | 66 | 2.0 | 3.0 | 0.00 | 0.00 | 0.00 | 45 | 1017.6 |
| 20260901044739 | 62 | 61 | 2.0 | 3.0 | 0.00 | 0.00 | 0.00 | 44 | 1017.5 |
| 20260901044236 | 62 | 56 | 3.0 | 4.0 | 0.00 | 0.00 | 0.00 | 44 | 1017.7 |
| 20260901043731 | 62 | 45 | 4.0 | 4.0 | 0.00 | 0.00 | 0.00 | 44 | 1017.8 |
| 20260901043226 | 62 | 82 | 3.0 | 3.0 | 0.00 | 0.00 | 0.00 | 45 | 1017.7 |
| 20260901042726 | 61 | 72 | 2.0 | 3.0 | 0.00 | 0.00 | 0.00 | 46 | 1017.8 |
| 20260901042220 | 62 | 76 | 2.0 | 3.0 | 0.00 | 0.00 | 0.00 | 44 | 1017.7 |
| 20260901041717 | 61 | 55 | 3.0 | 3.0 | 0.00 | 0.00 | 0.00 | 45 | 1017.9 |
| 20260901041216 | 61 | 71 | 3.0 | 4.0 | 0.00 | 0.00 | 0.00 | 46 | 1017.8 |
| 20260901040711 | 61 | 62 | 4.0 | 4.0 | 0.00 | 0.00 | 0.00 | 45 | 1017.6 |
| 20260901040210 | 61 | 77 | 3.0 | 4.0 | 0.00 | 0.00 | 0.00 | 46 | 1017.8 |
| 20260901035708 | 61 | 75 | 4.0 | 4.0 | 0.00 | 0.00 | 0.00 | 46 | 1017.7 |
| 20260901035208 | 63 | 81 | 2.0 | 4.0 | 0.00 | 0.00 | 0.00 | 45 | 1017.4 |
| 20260901034702 | 63 | 83 | 3.0 | 6.0 | 0.00 | 0.00 | 0.00 | 44 | 1017.4 |
| 20260901034157 | 63 | 83 | 4.0 | 4.0 | 0.00 | 0.00 | 0.00 | 43 | 1017.4 |
| 20260901033656 | 64 | 88 | 4.0 | 6.0 | 0.00 | 0.00 | 0.00 | 43 | 1017.5 |
| 20260901033155 | 65 | 53 | 5.0 | 7.0 | 0.00 | 0.00 | 0.00 | 41 | 1017.3 |
| 20260901032654 | 65 | 49 | 4.0 | 6.0 | 0.00 | 0.00 | 0.00 | 41 | 1017.3 |
| 20260901032149 | 65 | 60 | 4.0 | 6.0 | 0.00 | 0.00 | 0.00 | 41 | 1017.3 |
| 20260901031644 | 65 | 51 | 4.0 | 6.0 | 0.00 | 0.00 | 0.00 | 41 | 1017.3 |
| 20260901031140 | 65 | 68 | 4.0 | 4.0 | 0.00 | 0.00 | 0.00 | 42 | 1017.3 |
| 20260901030634 | 66 | 68 | 3.0 | 4.0 | 0.00 | 0.00 | 0.00 | 42 | 1017.1 |
| 20260901030129 | 66 | 64 | 6.0 | 8.0 | 0.00 | 0.00 | 0.00 | 40 | 1017.3 |
| 20260901025623 | 66 | 66 | 5.0 | 6.0 | 0.00 | 0.00 | 0.00 | 40 | 1017.3 |
| 20260901025118 | 67 | 69 | 4.0 | 4.0 | 0.00 | 0.00 | 0.00 | 39 | 1017.0 |
| 20260901024612 | 68 | 75 | 1.0 | 4.0 | 0.00 | 0.00 | 0.00 | 39 | 1016.9 |
| 20260901024111 | 69 | 40 | 3.0 | 4.0 | 0.00 | 0.00 | 0.00 | 38 | 1017.1 |
| 20260901023610 | 69 | 64 | 3.0 | 4.0 | 0.00 | 0.00 | 0.00 | 37 | 1016.8 |
| 20260901023105 | 69 | 34 | 2.0 | 4.0 | 0.00 | 0.00 | 0.00 | 37 | 1016.7 |
| 20260901022600 | 69 | 32 | 3.0 | 3.0 | 0.00 | 0.00 | 0.00 | 37 | 1016.9 |
| 20260901022055 | 69 | 61 | 2.0 | 3.0 | 0.00 | 0.00 | 0.00 | 37 | 1017.0 |
| 20260901021551 | 69 | 353 | 1.0 | 2.0 | 0.00 | 0.00 | 0.00 | 38 | 1016.9 |
| 20260901021046 | 70 | 55 | 3.0 | 3.0 | 0.00 | 0.00 | 0.00 | 37 | 1016.6 |
| 20260901020543 | 70 | 79 | 3.0 | 3.0 | 0.00 | 0.00 | 0.00 | 36 | 1016.8 |
| 20260901020038 | 71 | 41 | 2.0 | 3.0 | 0.00 | 0.00 | 0.00 | 36 | 1016.9 |
| 20260901015533 | 72 | 63 | 2.0 | 3.0 | 0.00 | 0.00 | 0.00 | 35 | 1016.9 |
| 20260901015032 | 72 | 51 | 2.0 | 3.0 | 0.00 | 0.00 | 0.00 | 35 | 1016.8 |
| 20260901014528 | 73 | 41 | 2.0 | 3.0 | 0.00 | 0.00 | 0.00 | 34 | 1016.7 |
| 20260901014024 | 73 | 73 | 2.0 | 3.0 | 0.00 | 0.00 | 0.00 | 34 | 1017.0 |
| 20260901013519 | 73 | 90 | 2.0 | 2.0 | 0.00 | 0.00 | 0.00 | 35 | 1017.0 |
| 20260901013015 | 73 | 79 | 2.0 | 2.0 | 0.00 | 0.00 | 0.00 | 34 | 1016.9 |
| 20260901012514 | 74 | 69 | 2.0 | 3.0 | 0.00 | 0.00 | 0.00 | 34 | 1017.1 |
| 20260901012010 | 75 | 78 | 2.0 | 3.0 | 0.00 | 0.00 | 0.00 | 33 | 1017.0 |
| 20260901011507 | 75 | 80 | 2.0 | 2.0 | 0.00 | 0.00 | 0.00 | 33 | 1017.0 |
| 20260901011004 | 75 | 127 | 3.0 | 3.0 | 0.00 | 0.00 | 0.00 | 32 | 1017.0 |
| 20260901010459 | 75 | 12 | 1.0 | 3.0 | 0.00 | 0.00 | 0.00 | 32 | 1016.9 |
| 20260901005958 | 75 | 92 | 2.0 | 6.0 | 0.00 | 0.00 | 0.00 | 31 | 1017.3 |
| 20260901005453 | 76 | 71 | 3.0 | 3.0 | 0.00 | 0.00 | 0.00 | 31 | 1017.1 |
| 20260901004948 | 76 | 78 | 4.0 | 6.0 | 0.00 | 0.00 | 0.00 | 31 | 1017.1 |
| 20260901004448 | 77 | 227 | 0.0 | 1.0 | 0.00 | 0.00 | 0.00 | 30 | 1017.1 |
| 20260901003942 | 78 | 271 | 1.0 | 2.0 | 0.00 | 0.00 | 0.00 | 30 | 1017.1 |
| 20260901003438 | 77 | 294 | 1.0 | 3.0 | 0.00 | 0.00 | 0.00 | 29 | 1017.3 |
| 20260901002936 | 78 | 277 | 1.0 | 3.0 | 0.00 | 0.00 | 0.00 | 29 | 1017.4 |
| 20260901002436 | 77 | 260 | 1.0 | 1.0 | 0.00 | 0.00 | 0.00 | 30 | 1017.4 |
| 20260901001930 | 78 | 253 | 1.0 | 2.0 | 0.00 | 0.00 | 0.00 | 29 | 1017.3 |
| 20260901001427 | 78 | 304 | 3.0 | 4.0 | 0.00 | 0.00 | 0.00 | 30 | 1017.3 |
| 20260901000927 | 78 | 340 | 2.0 | 2.0 | 0.00 | 0.00 | 0.00 | 29 | 1017.3 |
| 20260901000422 | 78 | 267 | 2.0 | 4.0 | 0.00 | 0.00 | 0.00 | 29 | 1017.5 |
| 20260831235921 | 77 | 283 | 2.0 | 2.0 | 0.00 | 0.00 | 0.00 | 29 | 1017.5 |
| 20260831235417 | 77 | 182 | 2.0 | 3.0 | 0.00 | 0.00 | 0.00 | 31 | 1017.5 |
| 20260831234912 | 78 | 58 | 3.0 | 4.0 | 0.00 | 0.00 | 0.00 | 30 | 1017.1 |
| 20260831234411 | 78 | 254 | 0.0 | 3.0 | 0.00 | 0.00 | 0.00 | 30 | 1017.5 |
| 20260831233907 | 79 | 256 | 0.0 | 1.0 | 0.00 | 0.00 | 0.00 | 30 | 1017.6 |
| 20260831233402 | 77 | 226 | 1.0 | 2.0 | 0.00 | 0.00 | 0.00 | 29 | 1017.3 |
| 20260831232857 | 76 | 228 | 0.0 | 4.0 | 0.00 | 0.00 | 0.00 | 30 | 1017.5 |
| 20260831232353 | 77 | 167 | 2.0 | 2.0 | 0.00 | 0.00 | 0.00 | 30 | 1017.6 |
| 20260831231849 | 77 | 190 | 6.0 | 7.0 | 0.00 | 0.00 | 0.00 | 30 | 1017.7 |
| 20260831231345 | 79 | 182 | 3.0 | 7.0 | 0.00 | 0.00 | 0.00 | 30 | 1017.6 |
| 20260831230840 | 78 | 345 | 2.0 | 2.0 | 0.00 | 0.00 | 0.00 | 29 | 1017.7 |
| 20260831230335 | 78 | 243 | 1.0 | 3.0 | 0.00 | 0.00 | 0.00 | 30 | 1017.6 |
| 20260831225835 | 77 | 268 | 2.0 | 2.0 | 0.00 | 0.00 | 0.00 | 30 | 1017.7 |
| 20260831225330 | 77 | 273 | 1.0 | 3.0 | 0.00 | 0.00 | 0.00 | 30 | 1017.6 |
| 20260831224826 | 77 | 73 | 2.0 | 4.0 | 0.00 | 0.00 | 0.00 | 30 | 1017.7 |
| 20260831224320 | 77 | 240 | 4.0 | 6.0 | 0.00 | 0.00 | 0.00 | 31 | 1017.7 |
| 20260831223815 | 77 | 212 | 4.0 | 6.0 | 0.00 | 0.00 | 0.00 | 30 | 1017.9 |
| 20260831223312 | 77 | 277 | 2.0 | 4.0 | 0.00 | 0.00 | 0.00 | 32 | 1018.1 |
| 20260831222808 | 77 | 249 | 6.0 | 10.0 | 0.00 | 0.00 | 0.00 | 31 | 1017.9 |
| 20260831222306 | 77 | 328 | 2.0 | 3.0 | 0.00 | 0.00 | 0.00 | 31 | 1017.9 |
| 20260831221758 | 77 | 209 | 4.0 | 6.0 | 0.00 | 0.00 | 0.00 | 31 | 1017.9 |
| 20260831221254 | 77 | 214 | 6.0 | 9.0 | 0.00 | 0.00 | 0.00 | 30 | 1018.2 |
| 20260831220754 | 76 | 216 | 4.0 | 8.0 | 0.00 | 0.00 | 0.00 | 31 | 1018.2 |
| 20260831220249 | 77 | 242 | 7.0 | 9.0 | 0.00 | 0.00 | 0.00 | 30 | 1018.0 |
| 20260831215744 | 77 | 259 | 3.0 | 4.0 | 0.00 | 0.00 | 0.00 | 32 | 1017.9 |
| 20260831215240 | 76 | 322 | 2.0 | 7.0 | 0.00 | 0.00 | 0.00 | 33 | 1018.4 |
| 20260831214737 | 76 | 235 | 3.0 | 4.0 | 0.00 | 0.00 | 0.00 | 33 | 1018.1 |
| 20260831214233 | 76 | 260 | 1.0 | 3.0 | 0.00 | 0.00 | 0.00 | 32 | 1018.4 |
| 20260831213729 | 77 | 284 | 5.0 | 9.0 | 0.00 | 0.00 | 0.00 | 33 | 1018.1 |
| 20260831213225 | 76 | 295 | 5.0 | 8.0 | 0.00 | 0.00 | 0.00 | 33 | 1018.4 |
| 20260831212720 | 76 | 282 | 6.0 | 9.0 | 0.00 | 0.00 | 0.00 | 33 | 1018.2 |
| 20260831212217 | 76 | 211 | 4.0 | 4.0 | 0.00 | 0.00 | 0.00 | 32 | 1018.1 |
| 20260831211715 | 77 | 240 | 3.0 | 8.0 | 0.00 | 0.00 | 0.00 | 34 | 1018.2 |
| 20260831211211 | 77 | 215 | 5.0 | 8.0 | 0.00 | 0.00 | 0.00 | 32 | 1018.1 |
| 20260831210710 | 76 | 247 | 3.0 | 10.0 | 0.00 | 0.00 | 0.00 | 33 | 1018.2 |
| 20260831210207 | 75 | 275 | 4.0 | 7.0 | 0.00 | 0.00 | 0.00 | 34 | 1018.4 |
| 20260831205706 | 76 | 208 | 3.0 | 7.0 | 0.00 | 0.00 | 0.00 | 34 | 1018.2 |
| 20260831205203 | 75 | 301 | 4.0 | 7.0 | 0.00 | 0.00 | 0.00 | 35 | 1018.4 |
| 20260831204702 | 75 | 301 | 4.0 | 7.0 | 0.00 | 0.00 | 0.00 | 35 | 1018.5 |
| 20260831204201 | 75 | 231 | 8.0 | 11.0 | 0.00 | 0.00 | 0.00 | 34 | 1018.5 |
| 20260831203656 | 75 | 267 | 1.0 | 3.0 | 0.00 | 0.00 | 0.00 | 34 | 1018.5 |
| 20260831203155 | 75 | 255 | 4.0 | 8.0 | 0.00 | 0.00 | 0.00 | 36 | 1018.7 |
| 20260831202654 | 74 | 223 | 5.0 | 6.0 | 0.00 | 0.00 | 0.00 | 37 | 1018.7 |
| 20260831202149 | 74 | 274 | 6.0 | 9.0 | 0.00 | 0.00 | 0.00 | 37 | 1018.7 |
| 20260831201648 | 74 | 246 | 10.0 | 14.0 | 0.00 | 0.00 | 0.00 | 36 | 1018.6 |
| 20260831201148 | 73 | 225 | 6.0 | 11.0 | 0.00 | 0.00 | 0.00 | 36 | 1018.7 |
| 20260831200644 | 74 | 260 | 4.0 | 11.0 | 0.00 | 0.00 | 0.00 | 37 | 1018.8 |
| 20260831200144 | 74 | 250 | 6.0 | 9.0 | 0.00 | 0.00 | 0.00 | 37 | 1018.9 |
| 20260831195640 | 73 | 217 | 3.0 | 6.0 | 0.00 | 0.00 | 0.00 | 37 | 1018.8 |
| 20260831195135 | 73 | 223 | 6.0 | 8.0 | 0.00 | 0.00 | 0.00 | 37 | 1018.9 |
| 20260831194630 | 73 | 210 | 3.0 | 6.0 | 0.00 | 0.00 | 0.00 | 37 | 1018.9 |
| 20260831194125 | 74 | 350 | 4.0 | 6.0 | 0.00 | 0.00 | 0.00 | 37 | 1018.8 |
| 20260831193620 | 72 | 271 | 4.0 | 7.0 | 0.00 | 0.00 | 0.00 | 38 | 1018.9 |
| 20260831193115 | 73 | 280 | 5.0 | 7.0 | 0.00 | 0.00 | 0.00 | 37 | 1019.0 |
| 20260831192610 | 73 | 260 | 3.0 | 9.0 | 0.00 | 0.00 | 0.00 | 38 | 1018.9 |
| 20260831192106 | 73 | 279 | 4.0 | 7.0 | 0.00 | 0.00 | 0.00 | 37 | 1019.1 |
| 20260831191601 | 72 | 276 | 2.0 | 6.0 | 0.00 | 0.00 | 0.00 | 39 | 1019.1 |
| 20260831191057 | 72 | 230 | 4.0 | 10.0 | 0.00 | 0.00 | 0.00 | 40 | 1019.1 |
| 20260831190552 | 72 | 325 | 2.0 | 7.0 | 0.00 | 0.00 | 0.00 | 39 | 1019.0 |
| 20260831190050 | 72 | 309 | 6.0 | 7.0 | 0.00 | 0.00 | 0.00 | 39 | 1019.6 |
| 20260831185546 | 72 | 279 | 3.0 | 6.0 | 0.00 | 0.00 | 0.00 | 39 | 1019.4 |
| 20260831185042 | 72 | 281 | 5.0 | 8.0 | 0.00 | 0.00 | 0.00 | 40 | 1019.3 |
| 20260831184541 | 71 | 290 | 1.0 | 4.0 | 0.00 | 0.00 | 0.00 | 42 | 1019.6 |
| 20260831184037 | 71 | 269 | 3.0 | 9.0 | 0.00 | 0.00 | 0.00 | 42 | 1019.7 |
| 20260831183536 | 71 | 311 | 2.0 | 7.0 | 0.00 | 0.00 | 0.00 | 41 | 1019.7 |
| 20260831183031 | 72 | 219 | 3.0 | 6.0 | 0.00 | 0.00 | 0.00 | 42 | 1019.8 |
| 20260831182530 | 71 | 277 | 5.0 | 6.0 | 0.00 | 0.00 | 0.00 | 41 | 1019.6 |
| 20260831182027 | 71 | 286 | 4.0 | 8.0 | 0.00 | 0.00 | 0.00 | 42 | 1019.7 |
| 20260831181526 | 71 | 212 | 4.0 | 7.0 | 0.00 | 0.00 | 0.00 | 41 | 1019.9 |
| 20260831181026 | 71 | 328 | 5.0 | 7.0 | 0.00 | 0.00 | 0.00 | 41 | 1019.7 |
| 20260831180521 | 71 | 273 | 4.0 | 6.0 | 0.00 | 0.00 | 0.00 | 41 | 1019.8 |
| 20260831180016 | 71 | 317 | 2.0 | 4.0 | 0.00 | 0.00 | 0.00 | 43 | 1020.0 |
| 20260831175511 | 71 | 343 | 5.0 | 8.0 | 0.00 | 0.00 | 0.00 | 42 | 1019.9 |
| 20260831175008 | 70 | 261 | 6.0 | 8.0 | 0.00 | 0.00 | 0.00 | 43 | 1019.9 |
| 20260831174503 | 70 | 253 | 2.0 | 6.0 | 0.00 | 0.00 | 0.00 | 44 | 1020.2 |
| 20260831174002 | 70 | 269 | 5.0 | 9.0 | 0.00 | 0.00 | 0.00 | 42 | 1020.0 |
| 20260831173500 | 70 | 270 | 4.0 | 9.0 | 0.00 | 0.00 | 0.00 | 43 | 1020.0 |
| 20260831172957 | 69 | 296 | 5.0 | 7.0 | 0.00 | 0.00 | 0.00 | 44 | 1020.0 |
| 20260831172452 | 69 | 311 | 6.0 | 10.0 | 0.00 | 0.00 | 0.00 | 43 | 1020.0 |
| 20260831171947 | 69 | 321 | 6.0 | 9.0 | 0.00 | 0.00 | 0.00 | 44 | 1019.8 |
| 20260831171443 | 68 | 28 | 5.0 | 7.0 | 0.00 | 0.00 | 0.00 | 44 | 1020.0 |
| 20260831170940 | 69 | 237 | 5.0 | 9.0 | 0.00 | 0.00 | 0.00 | 43 | 1019.9 |
| 20260831170436 | 68 | 317 | 4.0 | 8.0 | 0.00 | 0.00 | 0.00 | 45 | 1019.8 |
| 20260831165932 | 68 | 290 | 7.0 | 10.0 | 0.00 | 0.00 | 0.00 | 44 | 1019.9 |
| 20260831165428 | 68 | 279 | 6.0 | 9.0 | 0.00 | 0.00 | 0.00 | 44 | 1019.9 |
| 20260831164924 | 68 | 266 | 8.0 | 9.0 | 0.00 | 0.00 | 0.00 | 44 | 1019.8 |
| 20260831164421 | 67 | 310 | 6.0 | 9.0 | 0.00 | 0.00 | 0.00 | 46 | 1019.9 |
| 20260831163921 | 66 | 206 | 4.0 | 9.0 | 0.00 | 0.00 | 0.00 | 48 | 1019.8 |
| 20260831163416 | 66 | 269 | 6.0 | 9.0 | 0.00 | 0.00 | 0.00 | 48 | 1019.9 |
| 20260831162915 | 66 | 281 | 6.0 | 8.0 | 0.00 | 0.00 | 0.00 | 49 | 1019.9 |
| 20260831162410 | 65 | 280 | 5.0 | 10.0 | 0.00 | 0.00 | 0.00 | 50 | 1019.7 |
| 20260831161908 | 64 | 287 | 7.0 | 10.0 | 0.00 | 0.00 | 0.00 | 51 | 1019.9 |
| 20260831161405 | 64 | 257 | 6.0 | 10.0 | 0.00 | 0.00 | 0.00 | 52 | 1019.8 |
| 20260831160901 | 63 | 301 | 4.0 | 10.0 | 0.00 | 0.00 | 0.00 | 53 | 1020.0 |
| 20260831160355 | 62 | 258 | 5.0 | 8.0 | 0.00 | 0.00 | 0.00 | 55 | 1019.8 |
| 20260831155850 | 62 | 278 | 4.0 | 10.0 | 0.00 | 0.00 | 0.00 | 56 | 1020.0 |
| 20260831155350 | 62 | 252 | 3.0 | 7.0 | 0.00 | 0.00 | 0.00 | 56 | 1019.8 |
| 20260831154845 | 62 | 244 | 5.0 | 7.0 | 0.00 | 0.00 | 0.00 | 56 | 1019.8 |
| 20260831154342 | 61 | 266 | 5.0 | 9.0 | 0.00 | 0.00 | 0.00 | 56 | 1019.8 |
| 20260831153840 | 60 | 307 | 3.0 | 7.0 | 0.00 | 0.00 | 0.00 | 58 | 1019.8 |
| 20260831153336 | 60 | 252 | 3.0 | 6.0 | 0.00 | 0.00 | 0.00 | 59 | 1019.8 |
| 20260831152832 | 59 | 270 | 4.0 | 6.0 | 0.00 | 0.00 | 0.00 | 60 | 1019.9 |
| 20260831152328 | 60 | 263 | 4.0 | 6.0 | 0.00 | 0.00 | 0.00 | 59 | 1019.9 |
| 20260831151823 | 59 | 312 | 2.0 | 6.0 | 0.00 | 0.00 | 0.00 | 61 | 1019.9 |
| 20260831151322 | 58 | 280 | 5.0 | 7.0 | 0.00 | 0.00 | 0.00 | 61 | 1020.0 |
| 20260831150817 | 57 | 290 | 3.0 | 8.0 | 0.00 | 0.00 | 0.00 | 65 | 1019.8 |
| 20260831150313 | 56 | 246 | 4.0 | 7.0 | 0.00 | 0.00 | 0.00 | 65 | 1019.9 |
| 20260831145812 | 55 | 231 | 2.0 | 4.0 | 0.00 | 0.00 | 0.00 | 67 | 1019.7 |
| 20260831145308 | 55 | 260 | 4.0 | 6.0 | 0.00 | 0.00 | 0.00 | 67 | 1019.7 |
| 20260831144804 | 54 | 256 | 6.0 | 10.0 | 0.00 | 0.00 | 0.00 | 68 | 1019.6 |
| 20260831144300 | 54 | 264 | 4.0 | 8.0 | 0.00 | 0.00 | 0.00 | 69 | 1019.6 |
| 20260831143759 | 54 | 224 | 3.0 | 6.0 | 0.00 | 0.00 | 0.00 | 69 | 1019.3 |
| 20260831143255 | 53 | 248 | 3.0 | 4.0 | 0.00 | 0.00 | 0.00 | 69 | 1019.6 |
| 20260831142750 | 53 | 251 | 3.0 | 4.0 | 0.00 | 0.00 | 0.00 | 70 | 1019.3 |
| 20260831142245 | 53 | 262 | 1.0 | 6.0 | 0.00 | 0.00 | 0.00 | 71 | 1019.2 |
| 20260831141745 | 52 | 270 | 3.0 | 6.0 | 0.00 | 0.00 | 0.00 | 72 | 1019.3 |
| 20260831141245 | 51 | 283 | 4.0 | 6.0 | 0.00 | 0.00 | 0.00 | 73 | 1019.4 |
| 20260831140740 | 51 | 315 | 4.0 | 7.0 | 0.00 | 0.00 | 0.00 | 74 | 1019.2 |
| 20260831140240 | 51 | 249 | 3.0 | 4.0 | 0.00 | 0.00 | 0.00 | 75 | 1019.2 |
| 20260831135737 | 50 | 276 | 2.0 | 4.0 | 0.00 | 0.00 | 0.00 | 75 | 1019.1 |
| 20260831135234 | 50 | 251 | 2.0 | 4.0 | 0.00 | 0.00 | 0.00 | 75 | 1019.1 |
| 20260831134729 | 51 | 255 | 2.0 | 3.0 | 0.00 | 0.00 | 0.00 | 75 | 1019.2 |
| 20260831134226 | 50 | 290 | 2.0 | 4.0 | 0.00 | 0.00 | 0.00 | 76 | 1018.9 |
| 20260831133724 | 50 | 279 | 2.0 | 3.0 | 0.00 | 0.00 | 0.00 | 76 | 1018.8 |
| 20260831133219 | 49 | 271 | 2.0 | 3.0 | 0.00 | 0.00 | 0.00 | 77 | 1018.7 |
| 20260831132714 | 48 | 270 | 2.0 | 6.0 | 0.00 | 0.00 | 0.00 | 77 | 1018.7 |
| 20260831132214 | 48 | 293 | 4.0 | 7.0 | 0.00 | 0.00 | 0.00 | 78 | 1018.6 |
| 20260831131714 | 47 | 275 | 3.0 | 4.0 | 0.00 | 0.00 | 0.00 | 78 | 1018.2 |
| 20260831131211 | 47 | 261 | 4.0 | 4.0 | 0.00 | 0.00 | 0.00 | 78 | 1018.6 |
| 20260831130706 | 47 | 272 | 4.0 | 6.0 | 0.00 | 0.00 | 0.00 | 78 | 1018.5 |
| 20260831130201 | 47 | 285 | 4.0 | 6.0 | 0.00 | 0.00 | 0.00 | 77 | 1018.2 |
| 20260831125700 | 47 | 280 | 5.0 | 7.0 | 0.00 | 0.00 | 0.00 | 77 | 1018.4 |
| 20260831125156 | 47 | 292 | 4.0 | 6.0 | 0.00 | 0.00 | 0.00 | 77 | 1018.1 |
| 20260831124651 | 47 | 283 | 4.0 | 7.0 | 0.00 | 0.00 | 0.00 | 77 | 1018.0 |
| 20260831124147 | 47 | 286 | 4.0 | 6.0 | 0.00 | 0.00 | 0.00 | 77 | 1018.0 |
| 20260831123647 | 47 | 304 | 5.0 | 8.0 | 0.00 | 0.00 | 0.00 | 76 | 1018.0 |
| 20260831123146 | 47 | 279 | 4.0 | 7.0 | 0.00 | 0.00 | 0.00 | 76 | 1018.0 |
| 20260831122645 | 47 | 280 | 5.0 | 7.0 | 0.00 | 0.00 | 0.00 | 75 | 1017.8 |
| 20260831122142 | 47 | 253 | 2.0 | 4.0 | 0.00 | 0.00 | 0.00 | 76 | 1017.8 |
| 20260831121641 | 47 | 280 | 4.0 | 7.0 | 0.00 | 0.00 | 0.00 | 75 | 1017.8 |
| 20260831121137 | 48 | 252 | 3.0 | 4.0 | 0.00 | 0.00 | 0.00 | 75 | 1017.9 |
| 20260831120632 | 48 | 301 | 3.0 | 4.0 | 0.00 | 0.00 | 0.00 | 74 | 1017.9 |
| 20260831120127 | 48 | 280 | 4.0 | 6.0 | 0.00 | 0.00 | 0.00 | 74 | 1017.8 |
| 20260831115623 | 48 | 283 | 4.0 | 7.0 | 0.00 | 0.00 | 0.00 | 73 | 1017.8 |
| 20260831115119 | 48 | 273 | 4.0 | 7.0 | 0.00 | 0.00 | 0.00 | 73 | 1017.7 |
| 20260831114617 | 49 | 272 | 4.0 | 7.0 | 0.00 | 0.00 | 0.00 | 72 | 1017.8 |
| 20260831114113 | 49 | 300 | 4.0 | 7.0 | 0.00 | 0.00 | 0.00 | 71 | 1017.7 |
| 20260831113612 | 50 | 298 | 5.0 | 7.0 | 0.00 | 0.00 | 0.00 | 70 | 1017.7 |
| 20260831113108 | 50 | 288 | 5.0 | 8.0 | 0.00 | 0.00 | 0.00 | 69 | 1017.6 |
| 20260831112607 | 50 | 286 | 6.0 | 9.0 | 0.00 | 0.00 | 0.00 | 69 | 1017.5 |
| 20260831112102 | 49 | 241 | 4.0 | 8.0 | 0.00 | 0.00 | 0.00 | 71 | 1017.7 |
| 20260831111558 | 49 | 259 | 5.0 | 9.0 | 0.00 | 0.00 | 0.00 | 71 | 1017.5 |
| 20260831111053 | 50 | 270 | 5.0 | 8.0 | 0.00 | 0.00 | 0.00 | 70 | 1017.6 |
| 20260831110548 | 50 | 299 | 6.0 | 9.0 | 0.00 | 0.00 | 0.00 | 69 | 1017.6 |
| 20260831110043 | 50 | 286 | 4.0 | 7.0 | 0.00 | 0.00 | 0.00 | 69 | 1017.5 |
| 20260831105543 | 50 | 276 | 7.0 | 9.0 | 0.00 | 0.00 | 0.00 | 68 | 1017.3 |
| 20260831105038 | 51 | 253 | 5.0 | 8.0 | 0.00 | 0.00 | 0.00 | 67 | 1017.4 |
| 20260831104534 | 51 | 262 | 5.0 | 9.0 | 0.00 | 0.00 | 0.00 | 66 | 1017.3 |
| 20260831104030 | 51 | 271 | 5.0 | 10.0 | 0.00 | 0.00 | 0.00 | 66 | 1016.9 |
| 20260831103525 | 51 | 286 | 7.0 | 10.0 | 0.00 | 0.00 | 0.00 | 66 | 1017.0 |
| 20260831103021 | 51 | 243 | 4.0 | 9.0 | 0.00 | 0.00 | 0.00 | 66 | 1017.1 |
| 20260831102514 | 51 | 240 | 5.0 | 13.0 | 0.00 | 0.00 | 0.00 | 65 | 1017.1 |
| 20260831102010 | 51 | 275 | 6.0 | 9.0 | 0.00 | 0.00 | 0.00 | 66 | 1016.9 |
| 20260831101505 | 51 | 267 | 8.0 | 10.0 | 0.00 | 0.00 | 0.00 | 66 | 1016.8 |
| 20260831101001 | 51 | 266 | 4.0 | 10.0 | 0.00 | 0.00 | 0.00 | 65 | 1017.0 |
| 20260831100456 | 51 | 279 | 4.0 | 8.0 | 0.00 | 0.00 | 0.00 | 64 | 1016.8 |
| 20260831095951 | 52 | 249 | 3.0 | 6.0 | 0.00 | 0.00 | 0.00 | 64 | 1016.8 |
| 20260831095451 | 51 | 279 | 7.0 | 9.0 | 0.00 | 0.00 | 0.00 | 64 | 1016.8 |
| 20260831094946 | 51 | 264 | 4.0 | 7.0 | 0.00 | 0.00 | 0.00 | 65 | 1016.9 |
| 20260831094442 | 51 | 269 | 6.0 | 9.0 | 0.00 | 0.00 | 0.00 | 65 | 1016.8 |
| 20260831093937 | 51 | 244 | 5.0 | 9.0 | 0.00 | 0.00 | 0.00 | 64 | 1016.9 |
| 20260831093432 | 51 | 255 | 6.0 | 8.0 | 0.00 | 0.00 | 0.00 | 64 | 1016.9 |
| 20260831092929 | 51 | 275 | 5.0 | 9.0 | 0.00 | 0.00 | 0.00 | 64 | 1016.9 |
| 20260831092425 | 52 | 255 | 6.0 | 10.0 | 0.00 | 0.00 | 0.00 | 63 | 1017.0 |
| 20260831091920 | 52 | 263 | 6.0 | 14.0 | 0.00 | 0.00 | 0.00 | 62 | 1017.0 |
| 20260831091414 | 52 | 266 | 6.0 | 10.0 | 0.00 | 0.00 | 0.00 | 63 | 1016.8 |
| 20260831090909 | 51 | 291 | 6.0 | 8.0 | 0.00 | 0.00 | 0.00 | 64 | 1017.0 |
| 20260831090401 | 52 | 279 | 3.0 | 7.0 | 0.00 | 0.00 | 0.00 | 63 | 1016.9 |
| 20260831085857 | 52 | 259 | 5.0 | 13.0 | 0.00 | 0.00 | 0.00 | 62 | 1016.8 |
| 20260831085356 | 51 | 231 | 4.0 | 6.0 | 0.00 | 0.00 | 0.00 | 64 | 1016.8 |
| 20260831084855 | 52 | 242 | 4.0 | 8.0 | 0.00 | 0.00 | 0.00 | 64 | 1016.7 |
| 20260831084352 | 51 | 252 | 4.0 | 6.0 | 0.00 | 0.00 | 0.00 | 64 | 1016.4 |
| 20260831083848 | 51 | 253 | 3.0 | 8.0 | 0.00 | 0.00 | 0.00 | 66 | 1016.6 |
| 20260831083343 | 50 | 268 | 4.0 | 4.0 | 0.00 | 0.00 | 0.00 | 67 | 1016.5 |
| 20260831082842 | 50 | 294 | 4.0 | 7.0 | 0.00 | 0.00 | 0.00 | 67 | 1016.6 |
| 20260831082337 | 51 | 273 | 2.0 | 6.0 | 0.00 | 0.00 | 0.00 | 66 | 1016.3 |
| 20260831081834 | 51 | 257 | 3.0 | 6.0 | 0.00 | 0.00 | 0.00 | 65 | 1016.2 |
| 20260831081329 | 51 | 263 | 3.0 | 6.0 | 0.00 | 0.00 | 0.00 | 64 | 1016.2 |
| 20260831080825 | 52 | 259 | 3.0 | 7.0 | 0.00 | 0.00 | 0.00 | 63 | 1016.5 |
| 20260831080324 | 52 | 240 | 4.0 | 6.0 | 0.00 | 0.00 | 0.00 | 64 | 1016.4 |
| 20260831075820 | 51 | 255 | 8.0 | 13.0 | 0.00 | 0.00 | 0.00 | 63 | 1016.3 |
| 20260831075315 | 50 | 256 | 4.0 | 7.0 | 0.00 | 0.00 | 0.00 | 66 | 1016.3 |
| 20260831074810 | 50 | 245 | 5.0 | 7.0 | 0.00 | 0.00 | 0.00 | 67 | 1016.3 |
| 20260831074309 | 50 | 251 | 3.0 | 6.0 | 0.00 | 0.00 | 0.00 | 67 | 1016.2 |
| 20260831073805 | 50 | 247 | 3.0 | 4.0 | 0.00 | 0.00 | 0.00 | 68 | 1016.2 |
| 20260831073303 | 50 | 253 | 4.0 | 6.0 | 0.00 | 0.00 | 0.00 | 68 | 1016.2 |
| 20260831072759 | 50 | 268 | 3.0 | 6.0 | 0.00 | 0.00 | 0.00 | 68 | 1016.2 |
| 20260831072255 | 51 | 241 | 4.0 | 7.0 | 0.00 | 0.00 | 0.00 | 65 | 1016.3 |
| 20260831071750 | 53 | 245 | 4.0 | 7.0 | 0.00 | 0.00 | 0.00 | 61 | 1016.5 |
| 20260831071244 | 53 | 260 | 6.0 | 8.0 | 0.00 | 0.00 | 0.00 | 62 | 1016.2 |
| 20260831070739 | 53 | 254 | 5.0 | 7.0 | 0.00 | 0.00 | 0.00 | 62 | 1016.2 |
| 20260831070238 | 53 | 283 | 4.0 | 9.0 | 0.00 | 0.00 | 0.00 | 62 | 1016.2 |
| 20260831065737 | 53 | 275 | 6.0 | 9.0 | 0.00 | 0.00 | 0.00 | 61 | 1016.1 |
| 20260831065235 | 53 | 312 | 5.0 | 8.0 | 0.00 | 0.00 | 0.00 | 61 | 1016.4 |
| 20260831064731 | 53 | 266 | 6.0 | 10.0 | 0.00 | 0.00 | 0.00 | 61 | 1016.3 |
| 20260831064226 | 53 | 256 | 5.0 | 9.0 | 0.00 | 0.00 | 0.00 | 62 | 1016.2 |